Weather History for Miami, FL

Change the Weather History Date:

Sunday, December 2, 2012

  Actual Average Record
Temperature  
Mean Temperature 76 °F 72 °F  
Max Temperature 81 °F 80 °F 86 °F (1981)
Min Temperature 71 °F 66 °F 41 °F (1910)
Degree Days  
Heating Degree Days 0 0  
Month to date heating degree days 0 0  
Since 1 July heating degree days 1 3  
Cooling Degree Days 11 8  
Month to date cooling degree days 21 16  
Year to date cooling degree days 4461 4388  
Growing Degree Days 26 (Base 50)    
Moisture  
Dew Point 63 °F    
Average Humidity 66    
Maximum Humidity 73    
Minimum Humidity 58    
Precipitation  
Precipitation 0.03 in 0.07 in 1.25 in (1994)
Month to date precipitation 0.07 0.15  
Year to date precipitation 86.50 60.01  
Snow  
Snow 0.00 in - - ()
Month to date snowfall 0.0  
Since 1 July snowfall 0.0  
Snow Depth 0.00 in    
Sea Level Pressure  
Sea Level Pressure 30.18 in    
Wind  
Wind Speed 12 mph (ENE)    
Max Wind Speed 23 mph    
Max Gust Speed 29 mph    
Visibility 10 miles    
Events Rain    
T = Trace of Precipitation, MM = Missing Value Source: NWS Daily Summary

Daily Weather History Graph

Daily Weather History Graph

Search for Another Location

Airport:

Trip Planner

Search our weather history database for the weather conditions in past years. The results will help you decide how hot, cold, wet, or windy it might be!

Date:

Astronomy

Dec. 02, 2012 Rise Set
Actual Time 6:51 AM EST 5:29 PM EST
Civil Twilight 6:27 AM EST 5:54 PM EST
Nautical Twilight 5:58 AM EST 6:23 PM EST
Astronomical Twilight 5:30 AM EST 6:51 PM EST
Moon 9:06 PM EST (12/2) 9:48 AM EST (12/2)
Length of Visible Light 11h 27m
Length of Day
10h 37m
Waning Gibbous, 86% of the Moon is Illuminated
Dec 2
Waning Gibbous
Dec 6
Last Quarter
Dec 13
New
Dec 20
First Quarter
Dec 28
Full

Hourly Weather History & Observations

Time (EST) Temp. Heat Index Dew Point Humidity Pressure Visibility Wind Dir Wind Speed Gust Speed Precip Events Conditions
12:53 AM 73.0 °F - 63.0 °F 71% 30.17 in 10.0 mi ENE 8.1 mph - 0.00 in   Mostly Cloudy
1:53 AM 73.0 °F - 62.1 °F 68% 30.17 in 10.0 mi East 10.4 mph - N/A   Scattered Clouds
2:53 AM 72.0 °F - 62.1 °F 71% 30.15 in 10.0 mi East 6.9 mph - N/A   Scattered Clouds
3:53 AM 73.0 °F - 63.0 °F 71% 30.15 in 10.0 mi ENE 8.1 mph - N/A   Mostly Cloudy
4:53 AM 73.0 °F - 64.0 °F 73% 30.16 in 10.0 mi ENE 11.5 mph 16.1 mph N/A   Mostly Cloudy
5:53 AM 71.1 °F - 64.9 °F 81% 30.17 in 7.0 mi East 8.1 mph - 0.02 in Rain Rain
6:53 AM 71.1 °F - 64.9 °F 81% 30.18 in 10.0 mi NE 4.6 mph - 0.01 in   Mostly Cloudy
7:53 AM 73.0 °F - 63.0 °F 71% 30.19 in 10.0 mi NE 8.1 mph - N/A   Scattered Clouds
8:53 AM 75.9 °F - 64.0 °F 67% 30.21 in 10.0 mi NE 10.4 mph - N/A   Scattered Clouds
9:53 AM 77.0 °F - 64.9 °F 66% 30.22 in 10.0 mi ENE 13.8 mph - N/A   Scattered Clouds
10:53 AM 78.1 °F - 64.9 °F 64% 30.22 in 10.0 mi ENE 13.8 mph 24.2 mph 0.00 in   Mostly Cloudy
11:53 AM 79.0 °F - 64.0 °F 60% 30.20 in 10.0 mi East 18.4 mph 24.2 mph N/A   Mostly Cloudy
12:53 PM 78.1 °F - 64.0 °F 62% 30.18 in 10.0 mi East 19.6 mph 26.5 mph N/A   Mostly Cloudy
1:53 PM 81.0 °F 82.5 °F 64.0 °F 56% 30.16 in 10.0 mi ENE 13.8 mph 24.2 mph N/A   Mostly Cloudy
2:53 PM 79.0 °F - 62.1 °F 56% 30.15 in 10.0 mi East 20.7 mph - N/A   Mostly Cloudy
3:53 PM 78.1 °F - 63.0 °F 60% 30.15 in 10.0 mi East 15.0 mph 25.3 mph N/A   Mostly Cloudy
4:53 PM 75.9 °F - 62.1 °F 62% 30.16 in 10.0 mi ENE 9.2 mph 20.7 mph N/A   Scattered Clouds
5:53 PM 75.0 °F - 63.0 °F 66% 30.16 in 10.0 mi East 13.8 mph 19.6 mph N/A   Mostly Cloudy
6:53 PM 75.9 °F - 62.1 °F 62% 30.18 in 10.0 mi East 13.8 mph - N/A   Partly Cloudy
7:53 PM 75.0 °F - 61.0 °F 62% 30.18 in 10.0 mi East 11.5 mph - N/A   Scattered Clouds
8:53 PM 73.9 °F - 61.0 °F 64% 30.19 in 10.0 mi East 11.5 mph - N/A   Scattered Clouds
9:53 PM 75.9 °F - 62.1 °F 62% 30.19 in 10.0 mi East 10.4 mph - N/A   Scattered Clouds
10:53 PM 73.9 °F - 61.0 °F 64% 30.20 in 10.0 mi East 12.7 mph - N/A   Scattered Clouds
11:53 PM 73.0 °F - 61.0 °F 66% 30.19 in 10.0 mi East 12.7 mph - N/A   Scattered Clouds